www.pogodaiklimat.ru

Погода и климат >> Архив погоды >> Италия >> Катандзаро


ПОГОДА в Катандзаро

  • Прогноз погоды в Катандзаро
  • Монитор погоды в Катандзаро

АРХИВ ПОГОДЫ в Катандзаро

Время (UTC), дата Ветер
(напр.,м/с)
 
Видим.   Явления Облачность Т
(С)
Тd
(С)
f
(%)
Тe
(С)
Тes
(С)
Комфортность P
(гПа)
Po
(гПа)
Тmin
(С)
Tmax
(С)
R
(мм)
R24
(мм)
S
(см)
19 19.03 штиль 0 н/о н/о +11.0 +8.2 83 +10 +10 1018.4 978.4
20 19.03 В 2 н/о н/о +11.0 +8.2 83 +10 +10 1018.5 978.5
21 19.03 штиль 0 н/о н/о +11.1 +8.3 83 +10 +10 1019.1 979.1
22 19.03 ЮЗ 1 н/о н/о +10.9 +8.6 86 +11 +11 1019.3 979.2
23 19.03 Ю 1 н/о н/о +10.8 +8.7 87 +10 +10 1019.5 979.4
00 20.03 штиль 0 н/о н/о +10.5 +8.4 87 +10 +10 1019.6 979.5
01 20.03 Ю 1 н/о н/о +10.1 +8.3 89 +10 +10 1020.1 979.9
02 20.03 СЗ 2 н/о н/о +10.1 +8.5 90 +9 +9 1019.6 979.4
03 20.03 штиль 0 н/о н/о +9.9 +8.1 89 +9 +9 1019.6 979.4
04 20.03 СЗ 1 н/о н/о +10.3 +8.0 86 +11 +11 1019.5 979.4
05 20.03 штиль 0 н/о н/о +10.3 +7.9 85 +10 +10 1019.6 979.4
06 20.03 ЮВ 1 н/о н/о +10.5 +8.1 85 +11 +11 1019.7 979.6 +9.8 701
07 20.03 ЮЗ 1 н/о н/о +10.5 +8.6 88 +10 +10 1020.3 980.1
08 20.03 З 2 н/о н/о +11.3 +8.3 82 +10 +10 1020.4 980.3
09 20.03 З 2 н/о н/о +12.0 +7.9 76 +11 +11 1020.5 980.5
10 20.03 ЮЗ 1 н/о н/о +13.1 +7.9 71 +13 +13 1020.5 980.7
11 20.03 Ю 3 н/о н/о +14.0 +6.5 61 +13 +13 1020.4 980.7
12 20.03 ЮВ 3 н/о н/о +15.3 +7.3 59 +15 +15 1019.4 979.9
13 20.03 СВ 3 н/о н/о +15.6 +7.3 58 +15 +15 1018.9 979.4
14 20.03 СЗ 4 н/о н/о +14.2 +7.7 65 +13 +13 1018.7 979.1
15 20.03 З 2 н/о н/о +13.2 +7.4 68 +13 +13 1018.9 979.1
16 20.03 З 3 н/о н/о +13.1 +7.3 68 +12 +12 1019.1 979.3
17 20.03 З 5 н/о н/о +12.8 +7.2 69 +11 +11 1019.3 979.5
18 20.03 З 4 н/о н/о +12.2 +7.0 71 +10 +10 1020.0 980.1 +17.1
19 20.03 З 2 н/о н/о +12.1 +6.5 69 +11 +11 1020.8 980.8
20 20.03 З 2 н/о н/о +12.3 +6.1 66 +11 +11 1021.1 981.1
21 20.03 СВ 1 н/о н/о +12.1 +4.5 60 +12 +12 1021.1 981.1
22 20.03 штиль 0 н/о н/о +12.3 +3.7 56 +12 +12 1021.4 981.4
23 20.03 штиль 0 н/о н/о +12.7 +2.7 51 +13 +13 1021.2 981.3
00 21.03 З 3 н/о н/о +11.7 +2.9 55 +10 +10 1021.4 981.4
01 21.03 З 2 н/о н/о +11.4 +3.3 57 +10 +10 1021.6 981.5
02 21.03 В 1 н/о н/о +12.7 +2.4 49 +13 +13 1020.6 980.8
03 21.03 В 4 н/о н/о +13.0 +2.7 50 +11 +11 1020.7 980.9
04 21.03 СВ 5 н/о н/о +14.1 +2.6 46 +13 +13 1020.9 981.2
05 21.03 СВ 4 н/о н/о +14.0 +2.8 47 +13 +13 1021.0 981.3
06 21.03 З 4 н/о н/о +14.2 +3.0 47 +13 +13 1021.2 981.5 +11.3 608
07 21.03 Ю 6 н/о н/о +15.1 +3.5 46 +14 +14 1021.3 981.7
08 21.03 В 5 н/о н/о +15.5 +3.5 45 +15 +15 1021.9 982.3
09 21.03 СЗ 6 н/о н/о +15.5 +3.5 45 +14 +14 1022.4 982.8
10 21.03 Ю 9 н/о н/о +15.3 +3.7 46 +13 +13 1022.6 983.0
11 21.03 ЮЗ 8 н/о н/о +16.3 +4.3 45 +15 +15 1022.7 983.2
12 21.03 В 3 н/о н/о +16.3 +4.3 45 +16 +16 1022.5 983.0
13 21.03 В 4 н/о н/о +15.9 +4.2 46 +15 +15 1022.1 982.6
14 21.03 В 5 н/о н/о +15.4 +3.7 46 +14 +14 1022.2 982.6
15 21.03 СЗ 5 н/о н/о +15.1 +3.2 45 +14 +14 1021.6 982.0
17 21.03 В 5 н/о н/о +13.7 +3.7 51 +12 +12 1022.2 982.4
18 21.03 В 2 н/о н/о +13.0 +4.6 57 +13 +13 1022.6 982.7 +16.9
19 21.03 С 5 н/о н/о +14.5 +2.9 46 +13 +13 1022.6 982.9
20 21.03 СВ 4 н/о н/о +14.8 +2.6 44 +14 +14 1022.7 983.0
21 21.03 В 6 н/о н/о +13.9 +2.7 47 +12 +12 1022.9 983.1
22 21.03 В 5 н/о н/о +14.5 +2.6 45 +13 +13 1023.1 983.4
23 21.03 С 7 н/о н/о +14.2 +3.3 48 +12 +12 1023.2 983.4
00 22.03 ЮВ 5 н/о н/о +13.8 +3.7 50 +12 +12 1023.9 984.0
01 22.03 СВ 7 н/о н/о +13.5 +2.3 47 +11 +11 1023.6 983.7
02 22.03 СВ 2 н/о н/о +13.4 +1.6 45 +13 +13 1023.4 983.5
03 22.03 В 5 н/о н/о +12.7 +1.6 47 +11 +11 1023.5 983.5
04 22.03 СВ 4 н/о н/о +12.8 +2.3 49 +11 +11 1023.5 983.5
05 22.03 В 4 н/о н/о +12.4 +2.2 50 +11 +11 1023.6 983.6
06 22.03 В 3 н/о н/о +12.2 +2.5 51 +11 +11 1024.4 984.3 +11.8 1
07 22.03 ЮЗ 5 н/о н/о +13.9 +2.7 47 +12 +12 1024.3 984.5
08 22.03 Ю 6 н/о н/о +14.6 +1.7 42 +13 +13 1024.5 984.7
09 22.03 В 7 н/о н/о +14.8 +2.2 43 +13 +13 1024.6 984.9
10 22.03 В 2 н/о н/о +15.2 +3.6 46 +15 +15 1024.6 984.9
11 22.03 В 6 н/о н/о +16.0 +2.3 40 +15 +15 1023.9 984.4
12 22.03 ЮВ 7 н/о н/о +16.5 +5.7 49 +15 +15 1023.0 983.6
13 22.03 Ю 6 н/о н/о +16.5 +7.4 55 +16 +16 1022.7 983.1
14 22.03 Ю 5 н/о н/о +14.5 +7.5 63 +13 +13 1022.5 982.8
15 22.03 ЮВ 8 н/о н/о +16.1 +3.8 44 +15 +15 1022.0 982.5
16 22.03 В 5 н/о н/о +15.7 +3.1 43 +15 +15 1021.9 982.4
17 22.03 В 5 н/о н/о +14.5 +3.2 47 +13 +13 1022.4 982.7
18 22.03 В 2 н/о н/о +13.2 +2.3 48 +13 +13 1022.5 982.6 +17.4
19 22.03 С 1 н/о н/о +12.7 +2.2 49 +13 +13 1022.7 982.7
20 22.03 СВ 1 н/о н/о +12.9 -0.1 41 +13 +13 1022.6 982.7
21 22.03 штиль 0 н/о н/о +12.7 0.0 42 +13 +13 1022.6 982.6
22 22.03 З 1 н/о н/о +12.0 +1.2 48 +12 +12 1022.5 982.5
23 22.03 З 2 н/о н/о +11.8 +0.1 44 +11 +11 1022.3 982.2
00 23.03 З 2 н/о н/о +11.2 +0.2 47 +11 +11 1022.5 982.3
01 23.03 З 3 н/о н/о +11.2 +0.8 49 +10 +10 1022.2 982.0
02 23.03 З 1 н/о н/о +11.7 -0.6 43 +12 +12 1021.4 981.3
03 23.03 З 2 н/о н/о +11.6 -1.3 41 +11 +11 1021.1 981.1
04 23.03 З 3 н/о н/о +11.5 -1.8 39 +10 +10 1021.0 980.9
05 23.03 З 4 н/о н/о +11.2 -1.7 41 +10 +10 1021.0 980.9
06 23.03 З 2 н/о н/о +11.4 -1.2 42 +11 +11 1021.4 981.3 +10.8 605
07 23.03 З 2 н/о н/о +12.0 0.0 44 +12 +12 1021.5 981.5
08 23.03 СЗ 1 н/о н/о +13.5 +0.1 40 +15 +15 1021.4 981.6
09 23.03 ЮЗ 3 н/о н/о +14.7 -1.1 34 +14 +14 1021.2 981.6
10 23.03 Ю 1 н/о н/о +15.4 +1.0 38 +16 +16 1021.2 981.6
11 23.03 Ю 2 н/о н/о +16.3 +2.2 39 +17 +17 1020.6 981.2
12 23.03 ЮВ 4 н/о н/о +16.4 +2.7 40 +16 +16 1020.3 980.9
13 23.03 Ю 2 н/о н/о +16.4 0.0 33 +17 +17 1020.2 980.8
14 23.03 ЮВ 4 н/о н/о +15.5 +1.5 39 +15 +15 1020.0 980.6
15 23.03 Ю 4 н/о н/о +15.1 +1.8 41 +14 +14 1020.2 980.7
16 23.03 Ю 1 н/о н/о +14.6 +1.0 40 +15 +15 1020.2 980.6
17 23.03 штиль 0 н/о н/о +14.1 +1.6 43 +14 +14 1020.4 980.7
18 23.03 СЗ 1 н/о н/о +13.3 +1.5 45 +14 +14 1020.7 980.9 +17.1
19 23.03 З 3 н/о н/о +13.3 +1.5 45 +13 +13 1020.9 981.1
20 23.03 З 3 н/о н/о +13.0 +1.5 45 +12 +12 1021.2 981.4
21 23.03 СЗ 4 н/о н/о +13.0 +1.5 45 +12 +12 1021.3 981.4
22 23.03 З 3 н/о н/о +12.6 +0.6 44 +12 +12 1021.5 981.6
23 23.03 З 2 н/о н/о +12.4 -0.9 40 +12 +12 1021.3 981.4
00 24.03 З 6 н/о н/о +11.9 -1.1 40 +10 +10 1021.2 981.2
01 24.03 СЗ 3 н/о н/о +11.8 -1.1 41 +11 +11 1021.1 981.1
02 24.03 З 5 н/о н/о +11.2 +0.5 48 +9 +9 1021.1 981.0
03 24.03 З 4 н/о н/о +11.2 +1.9 53 +9 +9 1020.6 980.5
04 24.03 З 7 н/о н/о +10.8 +3.7 61 +8 +8 1020.9 980.8
05 24.03 СЗ 4 н/о н/о +10.8 +4.0 63 +9 +9 1021.4 981.2
06 24.03 СЗ 5 н/о н/о +10.5 +4.6 67 +8 +8 1021.7 981.5 +10.5 11
07 24.03 З 5 н/о н/о +11.6 +4.7 63 +9 +9 1021.5 981.5
08 24.03 З 6 н/о н/о +12.7 +6.0 64 +10 +10 1021.6 981.7
09 24.03 З 5 н/о н/о +13.2 +6.5 64 +11 +11 1021.8 982.0
10 24.03 З 5 н/о н/о +13.9 +6.4 61 +12 +12 1021.8 982.0
11 24.03 З 7 н/о н/о +14.3 +7.5 64 +12 +12 1021.6 981.9
12 24.03 З 4 н/о н/о +14.1 +7.8 66 +13 +13 1021.4 981.7
13 24.03 З 4 н/о н/о +14.3 +7.7 64 +13 +13 1021.1 981.4
14 24.03 З 6 н/о н/о +14.3 +7.7 64 +13 +13 1020.7 981.0
15 24.03 З 5 н/о н/о +14.5 +7.0 61 +13 +13 1020.3 980.7
16 24.03 З 9 н/о н/о +13.9 +6.9 63 +11 +11 1020.2 980.5
17 24.03 З 9 н/о н/о +12.7 +7.3 70 +10 +10 1020.4 980.5
18 24.03 СЗ 6 н/о н/о +11.9 +7.2 73 +9 +9 1020.6 980.6 +15.0
19 24.03 СЗ 8 н/о н/о +11.7 +3.9 59 +9 +9 1020.6 980.6
20 24.03 СЗ 6 н/о н/о +12.2 +1.1 47 +10 +10 1020.6 980.7
21 24.03 СЗ 8 н/о н/о +12.3 +0.3 44 +10 +10 1020.3 980.4
22 24.03 СЗ 8 н/о н/о +12.3 -1.0 40 +10 +10 1020.2 980.3
23 24.03 СЗ 7 н/о н/о +12.1 -1.2 40 +10 +10 1019.8 979.9
00 25.03 СЗ 6 н/о н/о +12.0 -0.6 42 +10 +10 1019.5 979.6
01 25.03 СЗ 5 н/о н/о +11.9 -0.7 42 +10 +10 1019.1 979.2
02 25.03 СЗ 6 н/о н/о +11.8 -0.5 43 +10 +10 1018.7 978.8
03 25.03 СЗ 8 н/о н/о +11.4 +2.6 55 +8 +8 1018.3 978.3
04 25.03 З 6 н/о н/о +11.2 +2.7 56 +8 +8 1018.1 978.1
05 25.03 СЗ 8 н/о н/о +11.2 +2.4 55 +8 +8 1018.0 978.0
06 25.03 СЗ 8 н/о н/о +11.2 +3.2 58 +8 +8 1017.7 977.7 +10.9 13
07 25.03 СЗ 7 н/о н/о +10.9 +5.2 68 +8 +8 1017.5 977.5
08 25.03 СЗ 8 н/о н/о +11.6 +6.3 70 +8 +8 1017.3 977.4
09 25.03 З 8 н/о н/о +12.2 +6.6 69 +9 +9 1016.9 977.1
10 25.03 З 6 н/о н/о +13.3 +6.8 65 +11 +11 1016.0 976.4
11 25.03 З 7 н/о н/о +14.3 +5.6 56 +12 +12 1015.7 976.2
12 25.03 З 7 н/о н/о +14.5 +5.0 53 +13 +13 1014.4 975.0
13 25.03 З 10 н/о н/о +14.1 +6.4 60 +11 +11 1013.7 974.3
14 25.03 З 7 н/о н/о +13.9 +6.2 60 +12 +12 1012.8 973.4
15 25.03 З 5 н/о н/о +13.5 +6.3 62 +12 +12 1012.3 972.9
16 25.03 З 7 н/о н/о +12.2 +6.6 69 +9 +9 1012.3 972.7
17 25.03 З 8 н/о н/о +11.2 +7.3 77 +8 +8 1012.1 972.4
18 25.03 З 8 н/о н/о +10.9 +7.0 77 +7 +7 1012.1 972.3 +15.0
19 25.03 СЗ 9 н/о н/о +10.8 +6.5 75 +7 +7 1011.9 972.1
20 25.03 З 6 н/о н/о +10.7 +6.0 73 +8 +8 1011.9 972.1
21 25.03 СЗ 10 н/о н/о +10.5 +6.0 74 +6 +6 1011.6 971.8
22 25.03 СЗ 6 н/о н/о +10.5 +5.4 71 +7 +7 1011.4 971.6
23 25.03 СЗ 6 н/о н/о +10.3 +5.4 72 +7 +7 1011.0 971.2
00 26.03 СЗ 7 н/о н/о +10.1 +6.0 76 +6 +6 1010.8 971.0
01 26.03 СЗ 8 н/о н/о +10.0 +5.9 76 +6 +6 1010.4 970.6
02 26.03 СЗ 6 н/о н/о +10.2 +5.5 73 +7 +7 1009.8 970.0
03 26.03 СЗ 7 н/о н/о +10.2 +4.7 69 +7 +7 1009.5 969.7
04 26.03 СЗ 5 н/о н/о +9.7 +5.6 76 +7 +7 1009.8 969.9
05 26.03 СЗ 4 н/о н/о +9.6 +6.1 79 +7 +7 1010.3 970.4
06 26.03 СЗ 6 н/о н/о +9.7 +5.6 76 +6 +6 1011.0 971.1 +9.5 107
07 26.03 СЗ 5 н/о н/о +10.8 +4.9 67 +8 +8 1010.6 970.9
08 26.03 З 7 н/о н/о +11.5 +5.9 68 +8 +8 1011.2 971.5
09 26.03 З 6 н/о н/о +12.6 +5.9 64 +10 +10 1010.8 971.3
10 26.03 С 3 н/о н/о +13.6 +6.1 60 +13 +13 1010.7 971.3
11 26.03 З 3 н/о н/о +14.4 +5.7 56 +14 +14 1010.9 971.6
12 26.03 З 8 н/о н/о +14.8 +3.8 48 +13 +13 1011.4 972.1
13 26.03 З 7 н/о н/о +15.0 +3.1 45 +13 +13 1011.3 972.1
14 26.03 З 6 н/о н/о +14.6 +3.9 49 +13 +13 1012.0 972.7
15 26.03 З 6 н/о н/о +14.2 +4.9 54 +13 +13 1012.3 972.9
16 26.03 З 5 н/о н/о +14.3 +5.0 54 +13 +13 1012.4 973.1
17 26.03 З 6 н/о н/о +12.9 +4.5 57 +11 +11 1013.2 973.6
18 26.03 З 4 н/о н/о +11.9 +5.5 65 +10 +10 1013.8 974.1 +15.3

 

Местоположение метеостанции Катандзаро (Италия): широта 38.90 долгота 16.60 высота над уровнем моря 343 м.

В архиве по умолчанию представлена погода в Катандзаро за последнюю неделю. Архивные данные за месяц целиком и за предыдущие месяцы, начиная с января 2011 года, Вы можете получить, выбрав интересующий диапазон дат из раскрывающегося списка и нажав кнопку "Ввод!".


*Определитесь, кто Вы:
робот инопланетянин человек

Внимание! Время в таблицах - всемирное. Для получения местного времени необходимо прибавить поправку, которая равна 1 ч.

Смотрите также архив погоды в соседних городах и на ближайших метеорологических станциях:

Погода в Серральта-ди-сан-Вито (Италия) (22 км)
Погода в Ламеция-Терме (Италия) (30 км)
Погода на Монте Скеро (Италия) (51 км)
Погода в Пунто Алисе (Италия) (74 км)
Погода в Бонифати (Италия) (98 км)
Погода на Капо Стартивенто (Италия) (118 км)
Погода в Мессине (Италия) (120 км)
Погода в Латронико (Италия) (140 км)
Погода на Острове Салина (Италия) (154 км)
Погода на Капо Палинуро (Италия) (168 км)

Пояснения к столбцам:

Ветер - указаны скорость ветра в м/с - средняя за 10 мин, порывы в срок и между сроками (в фигурных скобках) и направление, откуда дует ветер: С - северный, СВ - северо-восточный, В - восточный, ЮВ - юго-восточный, Ю - южный, ЮЗ - юго-западный, З - западный, СЗ - северо-западный.
Видимость - горизонтальная дальность видимости в метрах или километрах. При видимости от 1 до 10 км при отсутствии осадков обычно наблюдается дымка, при ухудшении видимости до 1 км и менее - туман. В сухую погоду видимость может ухудшаться дымом, пылью или мглою.
Явления - указаны атмосферные явления, наблюдавшиеся в срок или в последний час перед сроком; фигурными скобками обозначены явления, наблюдавшиеся между сроками (за 1-3 часа до срока); квадратными скобками обозначены град или гололедные отложения с указанием их диаметра в мм.
Облачность - указаны через наклонную черту общая и нижняя облачность в баллах и высота нижней границы облаков в метрах; квадратными скобками обозначены формы облаков: Ci - перистые, Cs - перисто-слоистые, Cc - перисто-кучевые, Ac - высококучевые, As - высокослоистые, Sc - слоисто-кучевые, Ns - слоисто-дождевые, Cu - кучевые, Cb - кучево-дождевые. Подробнее классификацию облаков см. в Атласе облаков (PDF).
T - Температура воздуха - температура, измеренная на высоте 2 м над землей.
Td - Температура точки росы - температура, при понижении до которой содержащийся в воздухе водяной пар достигнет насыщения.
f - Относительная влажность воздуха - влажноcть воздуха, измеренная на высоте 2 м над землей.
Te - Эффективная температура - температура, которую ощущает одетый по сезону человек в тени. Характеристика душности погоды. При расчете учитывается влияние влажности воздуха и скорости ветра на теплоощущения человека.
Tes - Эффективная температура на солнце - температура, которую ощущает человек, с поправкой на солнечный нагрев. Характеристика знойности погоды. Зависит от высоты солнца над горизонтом, облачности и скорости ветра. Ночью, в пасмурную погоду, а также при ветре 12 м/с и более поправка равна нулю.
P - Атмосферное давление - приведенное к уровню моря атмосферное давление.
Po - Атмосферное давление - измеренное на уровне метеостанции атмосферное давление.
Tmin - Минимальная температура - минимум температуры воздуха на высоте 2 м над землей.
Tmax - Максимальная температура - максимум температуры воздуха на высоте 2 м над землей.
R - Количество осадков - Количество выпавших осадков за период времени, мм. При наведении курсора мыши на число - период времени, за который выпало указанное количество осадков.
R24 - Количество осадков - Количество выпавших осадков за 24 часа, мм.
S - Снежный покров - Высота снежного покрова, см. При наведении курсора мыши на число - состояние снежного покрова и степень покрытия местности в баллах.